sat.trackr.live / text

‹ back to catalog

ONEWEB-0681

NORAD 56717 · 2023-068H

PAYLOAD ACTIVE UNKNOWN

§ Identity

Operator
Country
UK
Launch date
2023-05-20
Launch site
AFWTR
Launch vehicle
Mass (kg)
RCS (m²)

Purposes: comms

External: N2YO · Heavens-Above · Gunter

§ Orbital elements

Epoch: 2026-05-25T05:11:22.528608Z

Period
108.94 min
Inclination
87.9254°
Eccentricity
0.0002738
Mean motion
13.21825540 rev/d
Perigee alt
1,175.7 km
Apogee alt
1,179.8 km
Semi-major
7,555.9 km
B*
1.2659e-4
RAAN
248.5422°
Arg perigee
85.4432°
Mean anomaly
274.7015°
Rev number
14,805

§ Raw data

ONEWEB-06811 56717U 23068H   26145.21623297  .00000065  00000+0  12659-3 0  99912 56717  87.9254 248.5422 0002738  85.4432 274.7015 13.21825540148051

JSON: /api/v1/satellites/56717 · /tle

For live sub-satellite position, see the globe view (requires WebGL).

§ Visibility from observer

Set your observer location to see the next 7 days of passes ≥ 10°. The values pass through the URL so the page stays shareable.

No JS? Fill the form by hand. The geolocation button needs JavaScript.